Powrót do katalogu

STARLINK-33591

AktywnyŁącznośćVLEO
NORAD 62777·PAYLOAD·🇺🇸 United States

Wystrzelony Jan 21, 2025 z Vandenberg Space Force Base

Loading…

Następne Przeloty (najbliższe 24 godziny)

TLE

ŚwieżeSource: CelesTrak SupGP

Epoka: Sep 14, 2026, 20:52 UTC

1 62777C 25015V   26257.86993056 -.00030831  00000+0 -91070-3 0  2573
2 62777  53.1566 159.9177 0001314  89.0230 115.5417 15.34412926    19

Śledź STARLINK-33591 w czasie rzeczywistym z AllMySat

Download on the App Store